Location: 81360 Arifat, France
(43.7204°N, 2.3408°E)
Time: 10:53:44
(UTC+02:00)

N. Korean satellite - Pass Details

Date: 30 September 2021
Orbit: 450 x 495 km, 97.3° (Epoch: 15 October)

Event Time Altitude Azimuth Distance (km) Brightness Sun altitude
Rises 06:19:04 0° 27° (NNE) 2,545 10.8 -16.6°
Reaches altitude 10° 06:21:33 10° 45° (NE) 1,669 10.1 -16.2°
Maximum altitude 06:24:15 20° 94° (E) 1,186 9.5 -15.7°
Drops below altitude 10° 06:26:56 10° 143° (SE) 1,674 9.6 -15.2°
Sets 06:29:26 0° 160° (SSE) 2,556 10.4 -14.8°
